EN

Hourly Weather Dziaduszyce

Today, 23 October, Friday

Time Temperature Precipitation Wind Pressure Humidity
00:00 +12°C° 0 mm 2 mps 743 mmHg 83%
01:00 +10°C° 0 mm 2 mps 743 mmHg 85%
02:00 +10°C° 0 mm 2 mps 743 mmHg 85%
03:00 +10°C° 0 mm 2 mps 742 mmHg 85%
04:00 +9°C° 0 mm 2 mps 742 mmHg 85%
05:00 +10°C° 0 mm 2 mps 742 mmHg 82%
06:00 +10°C° 0 mm 2 mps 742 mmHg 80%
07:00 +12°C° 0 mm 2 mps 742 mmHg 78%
08:00 +13°C° 0 mm 2 mps 742 mmHg 74%
09:00 +14°C° 0 mm 2 mps 742 mmHg 71%
10:00 +15°C° 0 mm 2 mps 741 mmHg 67%
11:00 +16°C° 0 mm 2 mps 741 mmHg 64%
12:00 +17°C° 0 mm 2 mps 741 mmHg 61%
13:00 +18°C° 0 mm 2 mps 741 mmHg 58%
14:00 +13°C° 0 mm 4 mps 740 mmHg 83%
15:00 +14°C° 0 mm 2 mps 740 mmHg 77%
16:00 +15°C° 0 mm 1 mps 740 mmHg 72%
17:00 +14°C° 0 mm 1 mps 740 mmHg 75%
18:00 +13°C° 0 mm 1 mps 740 mmHg 77%
19:00 +13°C° 0 mm 1 mps 740 mmHg 80%
20:00 +12°C° 0 mm 1 mps 740 mmHg 82%
21:00 +12°C° 0 mm 2 mps 740 mmHg 84%
22:00 +12°C° 0 mm 2 mps 740 mmHg 86%
23:00 +12°C° 0 mm 2 mps 739 mmHg 87%

Tomorrow, 24 October, Saturday

Time Temperature Precipitation Wind Pressure Humidity
00:00 +12°C° 0 mm 2 mps 739 mmHg 87%
01:00 +12°C° 0 mm 2 mps 739 mmHg 88%
02:00 +12°C° 0 mm 2 mps 739 mmHg 88%
03:00 +11°C° 0 mm 3 mps 739 mmHg 87%
04:00 +11°C° 0 mm 3 mps 739 mmHg 86%
05:00 +11°C° 0.6 mm 3 mps 739 mmHg 88%
06:00 +11°C° 0.6 mm 3 mps 740 mmHg 90%
07:00 +11°C° 0.6 mm 4 mps 740 mmHg 92%
08:00 +11°C° 0.7 mm 4 mps 740 mmHg 91%
09:00 +12°C° 0.7 mm 4 mps 741 mmHg 91%
10:00 +12°C° 0.7 mm 4 mps 741 mmHg 91%
11:00 +13°C° 0 mm 4 mps 741 mmHg 84%
12:00 +16°C° 0 mm 3 mps 741 mmHg 78%
13:00 +17°C° 0 mm 3 mps 742 mmHg 71%
14:00 +16°C° 0 mm 3 mps 742 mmHg 74%
15:00 +14°C° 0 mm 3 mps 742 mmHg 77%
16:00 +15°C° 0 mm 2 mps 742 mmHg 80%
17:00 +14°C° 0 mm 2 mps 742 mmHg 83%
18:00 +13°C° 0 mm 2 mps 743 mmHg 87%
19:00 +12°C° 0 mm 2 mps 743 mmHg 91%
20:00 +12°C° 0 mm 2 mps 744 mmHg 91%
21:00 +12°C° 0 mm 2 mps 744 mmHg 91%
22:00 +10°C° 0 mm 2 mps 744 mmHg 91%
23:00 +11°C° 0 mm 1 mps 744 mmHg 91%

Day after tomorrow, 25 October, Sunday

Time Temperature Precipitation Wind Pressure Humidity
00:00 +11°C° 0 mm 1 mps 744 mmHg 91%
01:00 +11°C° 0 mm 1 mps 744 mmHg 91%
02:00 +10°C° 0 mm 1 mps 744 mmHg 91%
03:00 +10°C° 0 mm 1 mps 744 mmHg 91%
04:00 +9°C° 0 mm 0 mps 744 mmHg 91%
05:00 +10°C° 0 mm 1 mps 744 mmHg 91%
06:00 +10°C° 0 mm 1 mps 744 mmHg 92%
07:00 +10°C° 0 mm 1 mps 744 mmHg 92%
08:00 +10°C° 0 mm 2 mps 744 mmHg 86%
09:00 +13°C° 0 mm 2 mps 744 mmHg 80%
10:00 +14°C° 0 mm 3 mps 744 mmHg 74%
11:00 +14°C° 0 mm 3 mps 743 mmHg 71%
12:00 +16°C° 0 mm 3 mps 743 mmHg 68%
13:00 +17°C° 0 mm 3 mps 743 mmHg 65%
14:00 +16°C° 0 mm 3 mps 742 mmHg 69%
15:00 +14°C° 0 mm 3 mps 742 mmHg 73%
16:00 +13°C° 0 mm 3 mps 742 mmHg 78%
17:00 +12°C° 0 mm 3 mps 742 mmHg 82%
18:00 +11°C° 0 mm 3 mps 742 mmHg 86%
19:00 +10°C° 0 mm 3 mps 742 mmHg 91%
20:00 +10°C° 0 mm 3 mps 742 mmHg 91%
21:00 +10°C° 0 mm 3 mps 741 mmHg 92%
22:00 +9°C° 0 mm 3 mps 741 mmHg 92%
23:00 +9°C° 0 mm 3 mps 741 mmHg 92%

, 26 October, Monday

Time Temperature Precipitation Wind Pressure Humidity
00:00 +9°C° 0 mm 2 mps 740 mmHg 91%
01:00 +8°C° 0 mm 2 mps 740 mmHg 91%
02:00 +8°C° 0 mm 2 mps 740 mmHg 91%
03:00 +8°C° 0 mm 2 mps 739 mmHg 90%
04:00 +8°C° 0 mm 2 mps 739 mmHg 90%
05:00 +8°C° 0 mm 2 mps 739 mmHg 90%
06:00 +8°C° 0 mm 3 mps 738 mmHg 90%
07:00 +8°C° 0 mm 3 mps 738 mmHg 90%
08:00 +10°C° 0 mm 3 mps 738 mmHg 85%
09:00 +12°C° 0 mm 3 mps 738 mmHg 81%
10:00 +13°C° 0 mm 4 mps 737 mmHg 76%
11:00 +14°C° 0 mm 4 mps 737 mmHg 73%
12:00 +15°C° 0 mm 4 mps 737 mmHg 69%
13:00 +16°C° 0 mm 5 mps 736 mmHg 66%
14:00 +15°C° 0 mm 5 mps 736 mmHg 69%
15:00 +15°C° 0 mm 5 mps 736 mmHg 72%
16:00 +14°C° 0 mm 5 mps 735 mmHg 75%
17:00 +13°C° 0 mm 5 mps 735 mmHg 78%
18:00 +12°C° 0 mm 4 mps 735 mmHg 81%
19:00 +12°C° 0 mm 4 mps 735 mmHg 84%
20:00 +11°C° 0 mm 4 mps 735 mmHg 85%
21:00 +11°C° 0 mm 4 mps 735 mmHg 86%
22:00 +11°C° 0 mm 3 mps 736 mmHg 88%
23:00 +11°C° 0 mm 3 mps 735 mmHg 88%

26 October, Monday

Time Temperature Precipitation Wind Pressure Humidity
00:00 +9°C° 0 mm 2 mps 740 mmHg 91%
01:00 +8°C° 0 mm 2 mps 740 mmHg 91%
02:00 +8°C° 0 mm 2 mps 740 mmHg 91%
03:00 +8°C° 0 mm 2 mps 739 mmHg 90%
04:00 +8°C° 0 mm 2 mps 739 mmHg 90%
05:00 +8°C° 0 mm 2 mps 739 mmHg 90%
06:00 +8°C° 0 mm 3 mps 738 mmHg 90%
07:00 +8°C° 0 mm 3 mps 738 mmHg 90%
08:00 +10°C° 0 mm 3 mps 738 mmHg 85%
09:00 +12°C° 0 mm 3 mps 738 mmHg 81%
10:00 +13°C° 0 mm 4 mps 737 mmHg 76%
11:00 +14°C° 0 mm 4 mps 737 mmHg 73%
12:00 +15°C° 0 mm 4 mps 737 mmHg 69%
13:00 +16°C° 0 mm 5 mps 736 mmHg 66%
14:00 +15°C° 0 mm 5 mps 736 mmHg 69%
15:00 +15°C° 0 mm 5 mps 736 mmHg 72%
16:00 +14°C° 0 mm 5 mps 735 mmHg 75%
17:00 +13°C° 0 mm 5 mps 735 mmHg 78%
18:00 +12°C° 0 mm 4 mps 735 mmHg 81%
19:00 +12°C° 0 mm 4 mps 735 mmHg 84%
20:00 +11°C° 0 mm 4 mps 735 mmHg 85%
21:00 +11°C° 0 mm 4 mps 735 mmHg 86%
22:00 +11°C° 0 mm 3 mps 736 mmHg 88%
23:00 +11°C° 0 mm 3 mps 735 mmHg 88%

27 October, Tuesday

Time Temperature Precipitation Wind Pressure Humidity
00:00 +11°C° 0 mm 3 mps 735 mmHg 88%
01:00 +10°C° 0 mm 3 mps 735 mmHg 89%
02:00 +10°C° 0 mm 3 mps 736 mmHg 89%
03:00 +10°C° 0 mm 3 mps 736 mmHg 89%
04:00 +10°C° 0 mm 3 mps 736 mmHg 89%
05:00 +10°C° 0 mm 3 mps 736 mmHg 88%
06:00 +10°C° 0 mm 3 mps 737 mmHg 88%
07:00 +10°C° 0 mm 3 mps 737 mmHg 88%
08:00 +12°C° 0 mm 3 mps 737 mmHg 82%
09:00 +14°C° 0 mm 3 mps 737 mmHg 76%
10:00 +16°C° 0 mm 3 mps 738 mmHg 70%
11:00 +17°C° 0 mm 3 mps 738 mmHg 67%
12:00 +18°C° 0 mm 3 mps 738 mmHg 64%
13:00 +19°C° 0 mm 3 mps 738 mmHg 61%
14:00 +18°C° 0 mm 3 mps 738 mmHg 66%
15:00 +17°C° 0 mm 3 mps 738 mmHg 71%
16:00 +16°C° 0 mm 3 mps 738 mmHg 75%
17:00 +15°C° 0 mm 2 mps 738 mmHg 78%
18:00 +14°C° 0 mm 2 mps 739 mmHg 81%
19:00 +13°C° 0 mm 2 mps 739 mmHg 84%
20:00 +13°C° 0 mm 1 mps 739 mmHg 85%
21:00 +12°C° 0 mm 1 mps 739 mmHg 87%
22:00 +12°C° 0 mm 1 mps 740 mmHg 88%
23:00 +12°C° 0 mm 1 mps 740 mmHg 88%

28 October, Wednesday

Time Temperature Precipitation Wind Pressure Humidity
00:00 +11°C° 0 mm 1 mps 740 mmHg 88%
01:00 +11°C° 0 mm 1 mps 740 mmHg 88%
02:00 +11°C° 0 mm 1 mps 740 mmHg 90%
03:00 +10°C° 0 mm 2 mps 740 mmHg 91%
04:00 +9°C° 0 mm 2 mps 740 mmHg 92%
05:00 +9°C° 0 mm 2 mps 740 mmHg 92%
06:00 +9°C° 0 mm 2 mps 740 mmHg 92%
07:00 +9°C° 0 mm 2 mps 740 mmHg 92%
08:00 +10°C° 0 mm 2 mps 741 mmHg 87%
09:00 +12°C° 0 mm 3 mps 741 mmHg 81%
10:00 +13°C° 0 mm 3 mps 741 mmHg 76%
11:00 +13°C° 0 mm 3 mps 741 mmHg 73%
12:00 +13°C° 0 mm 3 mps 741 mmHg 70%
13:00 +13°C° 0 mm 3 mps 742 mmHg 67%
14:00 +13°C° 0 mm 3 mps 742 mmHg 69%
15:00 +13°C° 0 mm 2 mps 742 mmHg 72%
16:00 +12°C° 0 mm 2 mps 742 mmHg 74%
17:00 +12°C° 0 mm 2 mps 742 mmHg 76%
18:00 +10°C° 0 mm 2 mps 743 mmHg 78%
19:00 +11°C° 0 mm 1 mps 743 mmHg 79%
20:00 +11°C° 0 mm 1 mps 743 mmHg 81%
21:00 +10°C° 0 mm 1 mps 743 mmHg 84%
22:00 +10°C° 0 mm 1 mps 744 mmHg 86%
23:00 +9°C° 0 mm 1 mps 744 mmHg 88%
Show more